Location: Sommers-Bausch Observatory
(40.0037°N, 105.2635°W)
Time: 16:20:31
(UTC-06:00)

Daily predictions for brighter satellites

Satellite Brightness Start Highest point End
(mag) Time Altitude Azimuth Time Altitude Azimuth Time Altitude Azimuth
Helios 1B rocket 4.3 20:18:28 10° ENE 20:20:16 13° E 20:22:04 10° ESE
Cosmos 1553 Rocket 4.4 20:16:10 10° N 20:22:01 43° ENE 20:27:46 10° SSE
Intercosmos 25 Rocket 4.0 20:19:35 10° NNW 20:22:45 46° W 20:25:51 10° S
Resurs 01 Rocket 1.7 20:18:27 10° SSE 20:22:50 61° ENE 20:27:15 10° N
Tiangong 1 1.7 20:20:23 10° WNW 20:23:04 43° N 20:25:44 10° ENE
Cosmos 2360 Rocket 3.8 20:22:38 10° ESE 20:25:04 13° E 20:27:31 10° ENE
Cosmos 1980 Rocket 2.5 20:19:57 10° SSW 20:25:33 76° WNW 20:31:10 10° NNE
Iridium 30 4.3 20:24:42 10° S 20:27:47 67° E 20:31:29 10° N
BREEZE-M DEB (TANK) 1.8 20:24:12 10° SW 20:29:09 79° SE 20:31:22 10° ENE
CZ-2D R/B 3.3 20:28:18 10° SSE 20:32:11 90° N 20:36:04 10° NNW
Cosmos 1975 Rocket 3.5 20:28:20 10° NNW 20:32:48 70° W 20:37:11 10° S
Cosmos 676 Rocket 4.0 20:27:49 10° NNW 20:33:10 82° ENE 20:38:30 10° SSE
SWAS 4.4 20:30:36 10° NNW 20:34:55 87° ENE 20:39:11 10° SSE
SeaSat 1 2.6 20:30:11 10° NE 20:35:00 51° ESE 20:39:46 10° S
Cosmos 2151 Rocket 3.8 20:30:53 10° SSE 20:35:05 48° E 20:39:19 10° NNE
Cosmos 44 3.1 20:34:24 10° NNW 20:38:50 86° ENE 20:43:27 10° SSE
Lacrosse 5 2.8 20:35:43 10° S 20:39:52 26° ESE 20:44:02 10° ENE
Meteor 2-4 Rocket 4.3 20:35:30 10° N 20:40:39 38° ENE 20:45:54 10° SE
DELTA 2 R/B (1) 3.9 20:38:33 10° W 20:44:02 58° SSW 20:48:44 14° ESE
Cosmos 1140 Rocket 3.5 20:39:50 10° NNW 20:45:04 73° ENE 20:50:18 10° SSE
Spot 2 Rocket 3.5 20:40:12 10° SSE 20:45:19 89° ENE 20:50:26 10° NNW
CZ-4B DEB 4.5 20:48:19 14° E 20:48:51 15° ENE 20:50:32 10° NNE
NOSS 2-3 (C) 4.1 20:44:42 10° S 20:49:05 45° ESE 20:54:04 10° NE
Cosmos 614 Rocket 3.9 20:45:34 10° NNW 20:50:41 70° ENE 20:55:43 10° SSE
ERBS 4.2 20:47:38 10° WSW 20:50:50 34° NW 20:54:03 10° NNE
Atlas Centaur 2 3.5 20:45:15 10° WSW 20:52:49 40° S 20:58:01 16° ESE
Cosmos 1954 Rocket 4.2 20:49:25 10° NNW 20:54:45 78° WSW 21:00:03 10° SSE
Cosmos 1536 Rocket 3.5 20:52:46 10° N 20:57:04 64° E 21:01:15 11° SSE
Meteor 1-29 4.1 20:57:45 10° NE 21:00:34 23° E 21:01:00 23° ESE
Helios 1A 3.4 20:58:19 17° SE 21:01:12 44° ENE 21:05:16 10° N
USA 186 3.0 21:01:23 10° S 21:04:34 43° W 21:07:49 10° NNW
Cosmos 1655 Rocket 4.5 20:59:20 10° SSW 21:05:33 66° W 21:11:53 10° N
GPS 2-05 Rocket1 3.4 21:04:06 10° WSW 21:07:15 37° S 21:08:18 29° SE
Cosmos 1602 4.5 21:05:11 10° SSW 21:08:56 54° W 21:12:43 10° N
ERS-1 Rocket 3.8 21:06:24 21° ESE 21:08:58 34° ENE 21:13:28 10° N
Cosmos 1741 Rocket 4.0 21:05:01 10° NNW 21:10:15 65° ENE 21:13:50 20° SSE
H-2A R/B 3.6 21:10:30 16° E 21:11:57 18° ENE 21:15:12 10° NNE
Envisat 3.4 21:09:25 10° S 21:14:26 62° W 21:19:30 10° NNW
Meteor 1-11 Rocket 3.9 21:10:56 10° S 21:16:49 83° W 21:22:35 10° N
EXPRESS MD2 4.3 21:17:08 10° W 21:19:44 39° NNW 21:24:10 10° NE
GENESIS II 4.3 21:17:40 10° NW 21:21:35 70° WSW 21:23:27 29° SSE
SJ-11-01 4.4 21:17:25 12° S 21:21:41 75° WSW 21:26:22 10° NNW
ATLAS 3B R/B 3.5 21:15:41 10° NNW 21:21:51 36° NE 21:25:20 22° E
NOSS 2-3 (D) 3.9 21:24:09 10° SW 21:28:46 84° NW 21:34:09 10° NNE
ARGOS 3.8 21:27:17 29° ESE 21:29:14 39° ENE 21:34:11 10° N
Terra 4.0 21:29:05 11° ENE 21:29:25 11° ENE 21:30:32 10° NE
Cosmos 2322 Rocket 2.8 21:28:45 10° SW 21:34:22 61° WNW 21:40:02 10° NNE
Cosmos 2263 Rocket 2.1 21:28:54 10° NNW 21:34:38 85° ENE 21:37:36 30° SSE
Delta 2 Rocket 4.3 21:31:08 10° SW 21:34:49 33° SSE 21:34:49 33° SSE
Cosmos 1939 Rocket 3.9 21:32:05 12° SSW 21:35:28 42° W 21:39:15 10° NNW
Cosmos 883 Rocket 4.4 21:30:22 10° N 21:36:31 83° E 21:40:42 22° S
Spot 1 4.5 21:35:34 25° SSE 21:38:41 86° WSW 21:43:48 10° NNW
Meteor 1-23 Rocket 4.1 21:36:08 10° N 21:41:43 88° W 21:44:59 26° S
Cosmos 1536 3.7 21:38:08 10° SSW 21:42:05 50° W 21:46:05 10° N
Cosmos 1844 Rocket 4.1 21:37:47 10° N 21:42:15 23° NE 21:43:39 21° ENE
Cosmos 1110 Rocket 3.9 21:38:45 15° S 21:42:59 65° ESE 21:48:07 10° NNE
Cosmos 1515 4.2 21:39:33 10° N 21:42:55 41° ENE 21:42:55 41° ENE
YAOGAN 6 3.6 21:43:12 23° SSW 21:44:57 41° W 21:48:19 10° NNW
SL-16 R/B 3.1 21:39:43 10° SW 21:45:12 49° WNW 21:50:43 10° NNE
Lacrosse 5 rocket 3.3 21:43:07 10° WNW 21:45:47 19° WSW 21:47:14 15° SSW
Cosmos 2322 3.6 21:50:29 20° S 21:54:24 65° ESE 22:00:01 10° NNE
Cosmos 2219 Rocket 4.2 21:57:52 14° ENE 21:57:52 14° ENE 21:58:53 10° NE
ATLAS 2AS CENTAUR R/B 3.1 21:47:24 10° SW 21:55:05 84° NW 22:03:16 10° NNE
Helios 1B rocket 3.3 21:51:52 10° N 21:55:50 49° WNW 21:59:42 10° SSW
Okean 1 Rocket 3.7 21:52:35 15° SSW 21:56:04 54° W 22:00:22 10° N
Cosmos 1331 Rocket 3.8 21:54:54 25° S 21:57:58 80° ESE 22:03:12 10° NNE
Cosmos 1500 3.9 21:59:14 42° NE 21:59:14 42° NE 22:02:03 10° NNE
Tiangong 1 2.8 21:55:52 10° WNW 21:57:21 28° WNW 21:57:21 28° WNW
Cosmos 1238 Rocket 4.2 21:52:13 10° N 21:58:50 54° ENE 22:00:28 44° SE
MetOp-B 4.0 22:01:15 45° SSE 22:02:59 88° WSW 22:08:22 10° NNW
Okean 1-7 Rocket 3.6 21:58:42 10° N 22:03:12 79° W 22:04:02 58° SSW
COSMOS 2428 3.3 22:04:15 38° E 22:04:15 38° E 22:08:37 10° NE
YAOGAN 11 4.3 22:06:33 54° ENE 22:06:33 54° ENE 22:10:33 10° N
BREEZE-M DEB (TANK) 4.2 22:04:10 10° W 22:07:46 51° NNW 22:19:53 10° ENE
Cosmos 2360 Rocket 2.2 22:02:39 10° SSW 22:08:17 79° WNW 22:13:56 10° NNE
Cosmos 1607 4.1 22:02:07 10° NW 22:08:34 71° WSW 22:10:47 42° S
Cosmos 1025 Rocket 3.3 22:04:58 10° NNW 22:09:12 62° W 22:09:50 54° SW
SPOT 1/Viking Rocket 3.6 22:12:34 58° E 22:12:55 59° ENE 22:18:04 10° N
Aureole 3 Rocket 4.3 22:05:05 10° N 22:13:42 69° E 22:15:33 50° SE
Cosmos 2315 Rocket 4.2 22:07:33 10° NNW 22:13:46 69° W 22:16:44 33° SSW
SPOT 5 2.7 22:14:37 76° SE 22:14:55 81° ENE 22:19:39 10° N
Cosmos 2333 Rocket 4.1 22:20:18 15° ENE 22:20:18 15° ENE 22:21:32 10° NE
Lacrosse 5 2.6 22:17:37 10° WSW 22:22:34 52° NW 22:27:31 10° NE
USA 245 4.0 22:25:07 64° SSW 22:25:41 71° WSW 22:30:14 10° NNW
H-2A R/B 4.2 22:27:11 16° NE 22:27:11 16° NE 22:28:49 10° NNE
Nimbus 7 Rocket 4.2 22:26:24 10° NNE 22:32:17 76° ESE 22:32:37 74° SE
Cosmos 2237 Rocket 4.3 22:42:17 13° NE 22:42:17 13° NE 22:43:01 10° NE
Cosmos 1745 Rocket 3.8 22:40:34 76° ESE 22:40:39 76° E 22:46:48 10° N
Atlas Centaur 2 3.8 22:35:24 10° WSW 22:40:38 27° SSW 22:40:38 27° SSW
Cosmos 1066 Rocket 4.2 22:43:38 10° NNW 22:49:00 68° W 22:49:00 68° W
H-2A R/B 2.4 22:51:08 55° W 22:51:08 55° W 22:55:53 10° NNW
Landsat 7 4.4 22:52:08 55° NNW 22:52:08 55° NNW 22:55:52 10° NNW
NOSS 3-2 (A) 4.1 22:44:55 10° NNW 22:52:24 64° NE 22:53:41 57° E
USA 238 DEB 3.7 22:46:07 10° NW 22:53:13 77° WSW 22:53:57 70° S
USA 238 3.7 22:46:13 10° NW 22:53:19 77° WSW 22:54:03 71° S
Terra 2.8 23:07:58 44° NNW 23:07:58 44° NNW 23:11:13 10° NNW
Cosmos 1386 Rocket 4.5 23:09:17 78° NNW 23:09:17 78° NNW 23:15:11 10° N
ATLAS 3B R/B 3.1 23:06:20 10° NW 23:12:35 47° WSW 23:12:35 47° WSW
Cosmos 2278 Rocket 3.1 23:12:49 10° NNW 23:17:05 43° NNE 23:17:05 43° NNE
Cosmos 1844 Rocket 3.5 23:20:57 10° NNW 23:25:19 45° WNW 23:25:19 45° WNW
NOSS 3-2 (C) 3.9 23:22:39 10° NNW 23:30:17 81° NE 23:30:21 81° ENE
Cosmos 2219 Rocket 3.1 23:39:32 46° NNW 23:39:32 46° NNW 23:43:54 10° NNE
SL-16 R/B 4.3 23:49:33 17° NE 23:49:33 17° NE 23:50:52 10° NE
Cosmos 2181 Rocket 4.5 23:39:56 10° N 23:45:02 59° N 23:45:02 59° N
COSMOS 2455 4.3 23:41:21 10° N 23:45:53 29° NE 23:45:53 29° NE
COSMOS 2428 4.4 23:46:11 26° W 23:47:39 29° WNW 23:52:37 10° N
